This is the latest recevied weather packets stored in our database for station/object KM4RT-13. If no packets are shown the sender has not sent any weather packets the latest 1 day(s).
| Time | Temp. | Humidity | Pressure | Rain* | Wind** | Luminosity | Snow |
|---|---|---|---|---|---|---|---|
| 1778084730 | 11.11° C | 97% | 1011.9 hPa | 0 mm | - | 197 W/m² | - |
| 1778084422 | 11.11° C | 98% | 1012 hPa | 0 mm | - | 201 W/m² | - |
| 1778083514 | 10.56° C | 99% | 1012.1 hPa | 0 mm | - | 162 W/m² | - |
| 1778083211 | 10.56° C | 99% | 1012 hPa | 0 mm | - | 164 W/m² | - |
| 1778082909 | 10.56° C | 99% | 1011.9 hPa | 0 mm | - | 179 W/m² | - |
| 1778080591 | 10° C | 99% | 1012.1 hPa | 1.78 mm | - | 23 W/m² | - |
| 1778079984 | 10.56° C | 99% | 1012 hPa | 0 mm | - | 27 W/m² | - |
| 1778079681 | 10.56° C | 99% | 1012 hPa | 0 mm | - | 47 W/m² | - |
| 1778078772 | 10.56° C | 99% | 1011.5 hPa | 3.05 mm | - | 78 W/m² | - |
| 1778078469 | 10.56° C | 99% | 1011.5 hPa | 3.05 mm | - | 56 W/m² | - |
| 1778078167 | 10.56° C | 99% | 1011.7 hPa | 0 mm | - | 18 W/m² | - |
| 1778076656 | 10.56° C | 99% | 1010.8 hPa | 1.78 mm | - | 27 W/m² | - |
| 1778076353 | 10.56° C | 99% | 1011.1 hPa | 1.78 mm | - | 24 W/m² | - |
| 1778075747 | 10.56° C | 99% | 1011.4 hPa | 0 mm | - | 21 W/m² | - |
| 1778075443 | 10.56° C | 99% | 1010.9 hPa | 0 mm | - | 22 W/m² | - |
| 1778075140 | 10.56° C | 99% | 1010.6 hPa | 0 mm | - | 32 W/m² | - |
| 1778074533 | 10.56° C | 99% | 1011 hPa | 0 mm | - | 31 W/m² | - |
| 1778074230 | 10.56° C | 99% | 1010.9 hPa | 0 mm | - | 34 W/m² | - |
| 1778073018 | 10.56° C | 99% | 1010.5 hPa | 0 mm | - | 65 W/m² | - |
| 1778070901 | 10.56° C | 99% | 1009.5 hPa | 0 mm | - | 64 W/m² | - |
| 1778070295 | 10.56° C | 99% | 1009.4 hPa | 0 mm | - | 51 W/m² | - |
| 1778069387 | 10.56° C | 99% | 1009.1 hPa | 0 mm | - | 34 W/m² | - |
| 1778068178 | 10.56° C | 99% | 1009 hPa | 0 mm | - | 15 W/m² | - |
| 1778067271 | 10.56° C | 99% | 1009.1 hPa | 0 mm | - | 7 W/m² | - |
| 1778066967 | 10.56° C | 99% | 1008.8 hPa | 0 mm | - | 10 W/m² | - |
* Rain latest hour (hover to see other rain measurements)
** Current wind speed in m/s (hover to see current wind gust speed)